Location: St Paul
(33.4390°N, 83.7350°W)
Time: 17:30:49
(UTC-04:00)

Cosmos 1733 - Pass Details

Date: 06 October 2017
Orbit: 509 x 524 km, 82.5° (Epoch: 21 October)

Event Time Altitude Azimuth Distance (km) Brightness Sun altitude
Rises 19:47:46 0° 179° (S) 2,607 6.8 -8.2°
Reaches altitude 10° 19:49:53 10° 176° (S) 1,728 5.8 -8.7°
Maximum altitude 19:53:38 64° 94° (E) 574 3.1 -9.4°
Drops below altitude 10° 19:57:26 10° 13° (NNE) 1,749 5.8 -10.2°
Sets 19:59:35 0° 11° (N) 2,643 6.7 -10.7°
